Time,TemperatureF,DewpointF,PressureIn,WindDirection,WindDirectionDegrees,WindSpeedMPH,WindSpeedGustMPH,Humidity,HourlyPrecipIn,Conditions,Clouds,dailyrainin,SoftwareType,DateUTC
2013-02-04 00:03:00,18.0,13.0,29.73,NNW,348,6.0,11.0,82,0.00,,,0.00,,2013-02-04 05:03:00,
2013-02-04 00:12:00,18.0,13.0,29.73,NNW,348,6.0,11.0,82,0.00,,,0.00,,2013-02-04 05:12:00,
2013-02-04 00:22:00,17.0,12.0,29.73,NNE,12,6.0,14.0,82,0.00,,,0.00,,2013-02-04 05:22:00,
2013-02-04 00:33:00,17.0,13.0,29.72,North,354,5.0,11.0,83,0.00,,,0.00,,2013-02-04 05:33:00,
2013-02-04 00:42:00,17.0,13.0,29.72,North,354,5.0,11.0,83,0.00,,,0.00,,2013-02-04 05:42:00,
2013-02-04 00:52:00,17.0,13.0,29.72,WNW,283,4.0,13.0,83,0.00,,,0.00,,2013-02-04 05:52:00,
2013-02-04 01:02:00,17.0,13.0,29.71,NNW,333,6.0,13.0,83,0.00,,,0.00,,2013-02-04 06:02:00,
2013-02-04 01:11:00,17.0,13.0,29.71,NNW,333,6.0,13.0,83,0.00,,,0.00,,2013-02-04 06:11:00,
2013-02-04 01:21:00,17.0,13.0,29.70,NW,312,8.0,16.0,83,0.00,,,0.00,,2013-02-04 06:21:00,
2013-02-04 01:32:00,17.0,13.0,29.71,WNW,295,6.0,17.0,83,0.00,,,0.00,,2013-02-04 06:32:00,
2013-02-04 01:42:00,17.0,13.0,29.71,WNW,295,6.0,17.0,83,0.00,,,0.00,,2013-02-04 06:42:00,
2013-02-04 01:52:00,17.0,13.0,29.72,NNW,333,4.0,14.0,83,0.00,,,0.00,,2013-02-04 06:52:00,
2013-02-04 02:02:00,17.0,13.0,29.72,NW,310,4.0,14.0,83,0.00,,,0.00,,2013-02-04 07:02:00,
2013-02-04 02:11:00,17.0,13.0,29.72,NW,310,4.0,14.0,83,0.00,,,0.00,,2013-02-04 07:11:00,
2013-02-04 02:21:00,17.0,13.0,29.72,WNW,283,8.0,14.0,83,0.00,,,0.00,,2013-02-04 07:21:00,
2013-02-04 02:32:00,17.0,13.0,29.71,North,8,5.0,14.0,83,0.00,,,0.00,,2013-02-04 07:32:00,
2013-02-04 02:42:00,17.0,13.0,29.71,North,8,5.0,14.0,83,0.00,,,0.00,,2013-02-04 07:42:00,
2013-02-04 02:52:00,17.0,13.0,29.70,West,281,8.0,18.0,83,0.00,,,0.00,,2013-02-04 07:52:00,
2013-02-04 03:01:00,17.0,13.0,29.70,NW,311,4.0,9.0,83,0.00,,,0.00,,2013-02-04 08:01:00,
2013-02-04 03:11:00,17.0,13.0,29.70,NW,311,4.0,9.0,83,0.00,,,0.00,,2013-02-04 08:11:00,
2013-02-04 03:21:00,16.0,11.0,29.70,North,349,6.0,11.0,82,0.00,,,0.00,,2013-02-04 08:21:00,
2013-02-04 03:32:00,16.0,11.0,29.69,NW,322,5.0,12.0,82,0.00,,,0.00,,2013-02-04 08:32:00,
2013-02-04 03:42:00,16.0,11.0,29.69,NW,322,5.0,12.0,82,0.00,,,0.00,,2013-02-04 08:42:00,
2013-02-04 03:52:00,16.0,11.0,29.68,NE,36,7.0,16.0,82,0.00,,,0.00,,2013-02-04 08:52:00,
2013-02-04 04:02:00,16.0,11.0,29.68,WNW,296,7.0,15.0,82,0.00,,,0.00,,2013-02-04 09:02:00,
2013-02-04 04:11:00,16.0,11.0,29.68,WNW,296,7.0,15.0,82,0.00,,,0.00,,2013-02-04 09:11:00,
2013-02-04 04:21:00,15.0,11.0,29.69,WNW,289,7.0,15.0,82,0.00,,,0.00,,2013-02-04 09:21:00,
2013-02-04 04:32:00,15.0,11.0,29.69,West,280,6.0,15.0,82,0.00,,,0.00,,2013-02-04 09:32:00,
2013-02-04 04:42:00,15.0,11.0,29.69,West,280,6.0,15.0,82,0.00,,,0.00,,2013-02-04 09:42:00,
2013-02-04 04:52:00,14.0,10.0,29.68,NW,310,6.0,15.0,82,0.00,,,0.00,,2013-02-04 09:52:00,
2013-02-04 05:01:00,14.0,10.0,29.68,NW,316,7.0,15.0,82,0.00,,,0.00,,2013-02-04 10:01:00,
2013-02-04 05:11:00,14.0,10.0,29.68,NW,316,7.0,15.0,82,0.00,,,0.00,,2013-02-04 10:11:00,
2013-02-04 05:21:00,14.0,10.0,29.68,WNW,289,5.0,14.0,82,0.00,,,0.00,,2013-02-04 10:21:00,
2013-02-04 05:32:00,14.0,10.0,29.68,NNW,328,8.0,15.0,82,0.00,,,0.00,,2013-02-04 10:32:00,
2013-02-04 05:42:00,14.0,10.0,29.68,NNW,328,8.0,15.0,82,0.00,,,0.00,,2013-02-04 10:42:00,
2013-02-04 05:52:00,14.0,10.0,29.68,NNW,328,8.0,15.0,82,0.00,,,0.00,,2013-02-04 10:52:00,
2013-02-04 06:02:00,14.0,10.0,29.67,WNW,301,6.0,13.0,83,0.00,,,0.00,,2013-02-04 11:02:00,
2013-02-04 06:11:00,14.0,10.0,29.67,WNW,301,6.0,13.0,83,0.00,,,0.00,,2013-02-04 11:11:00,
2013-02-04 06:22:00,14.0,10.0,29.67,WNW,301,6.0,13.0,83,0.00,,,0.00,,2013-02-04 11:22:00,
2013-02-04 06:33:00,13.0,9.0,29.67,NW,308,6.0,12.0,83,0.00,,,0.00,,2013-02-04 11:33:00,
2013-02-04 06:42:00,13.0,9.0,29.67,NW,308,6.0,12.0,83,0.00,,,0.00,,2013-02-04 11:42:00,
2013-02-04 06:52:00,13.0,9.0,29.67,WNW,291,7.0,14.0,83,0.00,,,0.00,,2013-02-04 11:52:00,
2013-02-04 07:03:00,13.0,8.0,29.67,NW,316,6.0,16.0,81,0.00,,,0.00,,2013-02-04 12:03:00,
2013-02-04 07:12:00,13.0,8.0,29.67,NW,316,6.0,16.0,81,0.00,,,0.00,,2013-02-04 12:12:00,
2013-02-04 07:22:00,13.0,8.0,29.67,NW,316,6.0,16.0,81,0.00,,,0.00,,2013-02-04 12:22:00,
2013-02-04 07:32:00,14.0,9.0,29.67,NW,323,8.0,19.0,80,0.00,,,0.00,,2013-02-04 12:32:00,
2013-02-04 07:42:00,14.0,9.0,29.67,NW,323,8.0,19.0,80,0.00,,,0.00,,2013-02-04 12:42:00,
2013-02-04 07:52:00,14.0,9.0,29.67,North,11,6.0,17.0,79,0.00,,,0.00,,2013-02-04 12:52:00,
2013-02-04 08:03:00,15.0,9.0,29.67,NW,310,8.0,19.0,77,0.00,,,0.00,,2013-02-04 13:03:00,
2013-02-04 08:12:00,15.0,9.0,29.67,NW,304,7.0,16.0,75,0.00,,,0.00,,2013-02-04 13:12:00,
2013-02-04 08:22:00,15.0,9.0,29.67,NW,304,7.0,16.0,75,0.00,,,0.00,,2013-02-04 13:22:00,
2013-02-04 08:33:00,16.0,9.0,29.67,WNW,298,7.0,18.0,73,0.00,,,0.00,,2013-02-04 13:33:00,
2013-02-04 08:42:00,16.0,9.0,29.67,WNW,298,7.0,18.0,73,0.00,,,0.00,,2013-02-04 13:42:00,
2013-02-04 08:52:00,16.0,9.0,29.68,WNW,297,8.0,17.0,73,0.00,,,0.00,,2013-02-04 13:52:00,
2013-02-04 09:03:00,17.0,10.0,29.68,NW,308,8.0,19.0,73,0.00,,,0.00,,2013-02-04 14:03:00,
2013-02-04 09:12:00,17.0,10.0,29.68,NW,308,8.0,19.0,73,0.00,,,0.00,,2013-02-04 14:12:00,
2013-02-04 09:23:00,17.0,10.0,29.68,WNW,297,7.0,17.0,72,0.00,,,0.00,,2013-02-04 14:23:00,
2013-02-04 09:33:00,18.0,10.0,29.68,WNW,300,10.0,16.0,70,0.00,,,0.00,,2013-02-04 14:33:00,
2013-02-04 09:42:00,18.0,10.0,29.68,WNW,300,10.0,16.0,70,0.00,,,0.00,,2013-02-04 14:42:00,
2013-02-04 09:52:00,19.0,10.0,29.68,NW,320,5.0,19.0,68,0.00,,,0.00,,2013-02-04 14:52:00,
2013-02-04 10:03:00,19.0,10.0,29.67,NW,309,9.0,19.0,66,0.00,,,0.00,,2013-02-04 15:03:00,
2013-02-04 10:13:00,19.0,10.0,29.67,NW,309,9.0,19.0,66,0.00,,,0.00,,2013-02-04 15:13:00,
2013-02-04 10:23:00,20.0,10.0,29.67,NW,305,6.0,18.0,64,0.00,,,0.00,,2013-02-04 15:23:00,
2013-02-04 10:33:00,21.0,9.0,29.67,NNE,12,5.0,20.0,60,0.00,,,0.00,,2013-02-04 15:33:00,
2013-02-04 10:43:00,21.0,9.0,29.67,NNE,12,5.0,20.0,60,0.00,,,0.00,,2013-02-04 15:43:00,
2013-02-04 10:52:00,21.0,8.0,29.67,NNW,341,9.0,28.0,57,0.00,,,0.00,,2013-02-04 15:52:00,
2013-02-04 11:03:00,23.0,9.0,29.66,NW,326,12.0,24.0,55,0.00,,,0.00,,2013-02-04 16:03:00,
2013-02-04 11:11:00,23.0,9.0,29.66,NW,326,12.0,24.0,55,0.00,,,0.00,,2013-02-04 16:11:00,
2013-02-04 11:23:00,22.0,8.0,29.66,WNW,286,10.0,27.0,53,0.00,,,0.00,,2013-02-04 16:23:00,
2013-02-04 11:33:00,23.0,8.0,29.66,NW,315,11.0,27.0,53,0.00,,,0.00,,2013-02-04 16:33:00,
2013-02-04 11:43:00,23.0,8.0,29.66,NW,315,11.0,27.0,53,0.00,,,0.00,,2013-02-04 16:43:00,
2013-02-04 11:51:00,22.0,7.0,29.65,WNW,285,15.0,25.0,52,0.00,,,0.00,,2013-02-04 16:51:00,
2013-02-04 12:02:00,22.0,6.0,29.65,West,278,14.0,32.0,50,0.00,,,0.00,,2013-02-04 17:02:00,
2013-02-04 12:12:00,22.0,6.0,29.65,West,278,14.0,32.0,50,0.00,,,0.00,,2013-02-04 17:12:00,
2013-02-04 12:21:00,23.0,6.0,29.65,NW,314,14.0,28.0,48,0.00,,,0.00,,2013-02-04 17:21:00,
2013-02-04 12:32:00,23.0,6.0,29.65,NW,314,14.0,28.0,48,0.00,,,0.00,,2013-02-04 17:32:00,
2013-02-04 12:42:00,23.0,6.0,29.65,NW,314,14.0,28.0,48,0.00,,,0.00,,2013-02-04 17:42:00,
2013-02-04 12:51:00,23.0,6.0,29.65,West,270,10.0,22.0,48,0.00,,,0.00,,2013-02-04 17:51:00,
2013-02-04 13:03:00,22.0,4.0,29.65,West,278,13.0,25.0,46,0.00,,,0.00,,2013-02-04 18:03:00,
2013-02-04 13:11:00,22.0,4.0,29.65,West,278,13.0,25.0,46,0.00,,,0.00,,2013-02-04 18:11:00,
2013-02-04 13:22:00,23.0,3.0,29.65,WNW,286,13.0,26.0,42,0.00,,,0.00,,2013-02-04 18:22:00,
2013-02-04 13:32:00,23.0,4.0,29.65,WNW,285,14.0,28.0,44,0.00,,,0.00,,2013-02-04 18:32:00,
2013-02-04 13:42:00,23.0,4.0,29.65,WNW,285,14.0,28.0,44,0.00,,,0.00,,2013-02-04 18:42:00,
2013-02-04 13:52:00,23.0,3.0,29.65,West,264,18.0,35.0,42,0.00,,,0.00,,2013-02-04 18:52:00,
2013-02-04 14:02:00,22.0,4.0,29.66,NNW,344,13.0,27.0,45,0.00,,,0.00,,2013-02-04 19:02:00,
2013-02-04 14:12:00,22.0,4.0,29.66,NNW,344,13.0,27.0,45,0.00,,,0.00,,2013-02-04 19:12:00,
2013-02-04 14:22:00,21.0,5.0,29.67,West,277,12.0,24.0,50,0.00,,,0.00,,2013-02-04 19:22:00,
2013-02-04 14:32:00,22.0,6.0,29.67,West,268,10.0,19.0,50,0.00,,,0.00,,2013-02-04 19:32:00,
2013-02-04 14:42:00,22.0,6.0,29.67,West,268,10.0,19.0,50,0.00,,,0.00,,2013-02-04 19:42:00,
2013-02-04 14:52:00,21.0,6.0,29.68,NW,305,9.0,22.0,51,0.00,,,0.00,,2013-02-04 19:52:00,
2013-02-04 15:02:00,21.0,6.0,29.68,NW,305,9.0,22.0,51,0.00,,,0.00,,2013-02-04 20:02:00,
2013-02-04 15:12:00,21.0,6.0,29.68,NW,305,9.0,22.0,51,0.00,,,0.00,,2013-02-04 20:12:00,
2013-02-04 15:22:00,21.0,3.0,29.69,WNW,297,9.0,24.0,45,0.00,,,0.00,,2013-02-04 20:22:00,
2013-02-04 15:32:00,21.0,3.0,29.69,NW,314,10.0,26.0,45,0.00,,,0.00,,2013-02-04 20:32:00,
2013-02-04 15:42:00,21.0,3.0,29.69,NW,314,10.0,26.0,45,0.00,,,0.00,,2013-02-04 20:42:00,
2013-02-04 15:52:00,21.0,3.0,29.70,WNW,298,14.0,37.0,45,0.00,,,0.00,,2013-02-04 20:52:00,
2013-02-04 16:03:00,20.0,3.0,29.70,West,280,6.0,24.0,46,0.00,,,0.00,,2013-02-04 21:03:00,
2013-02-04 16:12:00,20.0,3.0,29.70,West,280,6.0,24.0,46,0.00,,,0.00,,2013-02-04 21:12:00,
2013-02-04 16:22:00,20.0,4.0,29.70,West,281,10.0,27.0,48,0.00,,,0.00,,2013-02-04 21:22:00,
2013-02-04 16:32:00,20.0,4.0,29.70,WNW,284,13.0,22.0,48,0.00,,,0.00,,2013-02-04 21:32:00,
2013-02-04 16:43:00,20.0,4.0,29.70,WNW,284,13.0,22.0,48,0.00,,,0.00,,2013-02-04 21:43:00,
2013-02-04 16:52:00,20.0,4.0,29.71,North,349,6.0,24.0,49,0.00,,,0.00,,2013-02-04 21:52:00,
2013-02-04 17:03:00,20.0,4.0,29.71,WNW,291,8.0,19.0,48,0.00,,,0.00,,2013-02-04 22:03:00,
2013-02-04 17:12:00,20.0,4.0,29.71,WNW,291,8.0,19.0,48,0.00,,,0.00,,2013-02-04 22:12:00,
2013-02-04 17:21:00,20.0,4.0,29.72,WSW,244,6.0,17.0,49,0.00,,,0.00,,2013-02-04 22:21:00,
2013-02-04 17:32:00,19.0,4.0,29.72,NW,326,7.0,17.0,51,0.00,,,0.00,,2013-02-04 22:32:00,
2013-02-04 17:42:00,19.0,4.0,29.72,NW,326,7.0,17.0,51,0.00,,,0.00,,2013-02-04 22:42:00,
2013-02-04 17:51:00,19.0,4.0,29.73,NNW,328,6.0,18.0,52,0.00,,,0.00,,2013-02-04 22:51:00,
2013-02-04 18:02:00,18.0,4.0,29.74,WSW,253,6.0,20.0,54,0.00,,,0.00,,2013-02-04 23:02:00,
2013-02-04 18:11:00,18.0,4.0,29.74,WSW,253,6.0,20.0,54,0.00,,,0.00,,2013-02-04 23:11:00,
2013-02-04 18:22:00,18.0,4.0,29.75,West,278,6.0,22.0,53,0.00,,,0.00,,2013-02-04 23:22:00,
2013-02-04 18:32:00,18.0,3.0,29.75,NW,312,9.0,23.0,51,0.00,,,0.00,,2013-02-04 23:32:00,
2013-02-04 18:42:00,18.0,3.0,29.75,NW,312,9.0,23.0,51,0.00,,,0.00,,2013-02-04 23:42:00,
2013-02-04 18:52:00,18.0,3.0,29.76,NW,306,8.0,18.0,52,0.00,,,0.00,,2013-02-04 23:52:00,
2013-02-04 19:02:00,17.0,3.0,29.76,WNW,302,7.0,19.0,53,0.00,,,0.00,,2013-02-05 00:02:00,
2013-02-04 19:12:00,17.0,3.0,29.76,WNW,302,7.0,19.0,53,0.00,,,0.00,,2013-02-05 00:12:00,
2013-02-04 19:22:00,17.0,2.0,29.76,West,280,14.0,27.0,52,0.00,,,0.00,,2013-02-05 00:22:00,
2013-02-04 19:32:00,17.0,3.0,29.77,West,272,9.0,23.0,53,0.00,,,0.00,,2013-02-05 00:32:00,
2013-02-04 19:42:00,17.0,3.0,29.77,West,272,9.0,23.0,53,0.00,,,0.00,,2013-02-05 00:42:00,
2013-02-04 19:52:00,17.0,3.0,29.78,WNW,283,10.0,20.0,53,0.00,,,0.00,,2013-02-05 00:52:00,
2013-02-04 20:02:00,16.0,2.0,29.78,WNW,295,9.0,22.0,53,0.00,,,0.00,,2013-02-05 01:02:00,
2013-02-04 20:12:00,16.0,2.0,29.78,WNW,295,9.0,22.0,53,0.00,,,0.00,,2013-02-05 01:12:00,
2013-02-04 20:22:00,16.0,2.0,29.79,NW,305,8.0,20.0,53,0.00,,,0.00,,2013-02-05 01:22:00,
2013-02-04 20:32:00,16.0,2.0,29.79,West,268,9.0,22.0,52,0.00,,,0.00,,2013-02-05 01:32:00,
2013-02-04 20:42:00,16.0,2.0,29.79,West,268,9.0,22.0,52,0.00,,,0.00,,2013-02-05 01:42:00,
2013-02-04 20:52:00,15.0,0.0,29.80,WNW,300,11.0,21.0,50,0.00,,,0.00,,2013-02-05 01:52:00,
2013-02-04 21:01:00,15.0,-1.0,29.80,WNW,291,10.0,30.0,48,0.00,,,0.00,,2013-02-05 02:01:00,
2013-02-04 21:11:00,15.0,-1.0,29.80,WNW,291,10.0,30.0,48,0.00,,,0.00,,2013-02-05 02:11:00,
2013-02-04 21:22:00,14.0,-4.0,29.79,NW,306,14.0,32.0,43,0.00,,,0.00,,2013-02-05 02:22:00,
2013-02-04 21:32:00,14.0,-5.0,29.81,WNW,294,11.0,26.0,41,0.00,,,0.00,,2013-02-05 02:32:00,
2013-02-04 21:42:00,14.0,-5.0,29.81,WNW,294,11.0,26.0,41,0.00,,,0.00,,2013-02-05 02:42:00,
2013-02-04 21:52:00,13.0,-7.0,29.82,NW,315,14.0,29.0,39,0.00,,,0.00,,2013-02-05 02:52:00,
2013-02-04 22:02:00,13.0,-7.0,29.82,NW,310,11.0,23.0,39,0.00,,,0.00,,2013-02-05 03:02:00,
2013-02-04 22:11:00,13.0,-7.0,29.82,NW,310,11.0,23.0,39,0.00,,,0.00,,2013-02-05 03:11:00,
2013-02-04 22:21:00,13.0,-8.0,29.83,WNW,282,9.0,25.0,38,0.00,,,0.00,,2013-02-05 03:21:00,
2013-02-04 22:32:00,12.0,-9.0,29.83,NW,321,10.0,27.0,38,0.00,,,0.00,,2013-02-05 03:32:00,
2013-02-04 22:42:00,12.0,-9.0,29.83,NW,321,10.0,27.0,38,0.00,,,0.00,,2013-02-05 03:42:00,
2013-02-04 22:51:00,12.0,-8.0,29.84,WNW,283,8.0,24.0,39,0.00,,,0.00,,2013-02-05 03:51:00,
2013-02-04 23:01:00,12.0,-8.0,29.84,NW,304,12.0,24.0,40,0.00,,,0.00,,2013-02-05 04:01:00,
2013-02-04 23:11:00,12.0,-8.0,29.84,NW,304,12.0,24.0,40,0.00,,,0.00,,2013-02-05 04:11:00,
2013-02-04 23:22:00,12.0,-8.0,29.85,NNW,347,9.0,26.0,40,0.00,,,0.00,,2013-02-05 04:22:00,
2013-02-04 23:32:00,11.0,-8.0,29.86,WNW,282,9.0,22.0,41,0.00,,,0.00,,2013-02-05 04:32:00,
2013-02-04 23:42:00,11.0,-8.0,29.86,WNW,282,9.0,22.0,41,0.00,,,0.00,,2013-02-05 04:42:00,
2013-02-04 23:52:00,11.0,-8.0,29.87,WNW,287,8.0,18.0,42,0.00,,,0.00,,2013-02-05 04:52:00,